Location: Newark
(25.0000°N, 73.5000°E)
Time: 19:28:26
(UTC+00:00)

Vanguard 2 - All Passes

Search period start: 28 February 2021 00:00
Search period end: 10 March 2021 00:00
Orbit: 552 x 2938 km, 32.9° (Epoch: 28 February)

Date Brightness Start Highest point End Pass type
(mag) Time Alt. Az. Time Alt. Az. Time Alt. Az.
28 Feb - 01:14:35 10° W 01:31:53 67° N 01:48:25 10° ENE daylight
28 Feb - 03:28:38 10° WNW 03:46:43 71° NNE 04:00:03 10° E daylight
28 Feb - 05:43:01 10° WNW 05:59:10 72° SSW 06:09:17 10° SE daylight
28 Feb - 07:59:22 10° W 08:08:02 22° SW 08:14:20 10° S daylight
28 Feb - 19:08:41 10° SSE 19:14:17 15° SE 19:21:05 10° E visible
28 Feb - 21:11:45 10° SW 21:23:22 55° SE 21:40:00 10° ENE visible
28 Feb - 23:20:42 10° WSW 23:35:41 82° NNW 23:53:55 10° ENE visible
01 Mar - 01:33:03 10° W 01:50:30 66° N 02:06:44 10° E daylight
01 Mar - 03:46:59 10° WNW 04:05:06 78° NNE 04:18:10 10° ESE daylight
01 Mar - 06:01:25 10° WNW 06:16:51 57° SW 06:26:42 10° SE daylight
01 Mar - 08:19:57 10° WSW 08:25:13 14° SW 08:29:34 10° SSW daylight
01 Mar - 19:23:54 10° S 19:31:32 23° SE 19:41:47 10° E visible
01 Mar - 21:29:06 10° SW 21:41:04 68° SSE 21:58:25 10° ENE visible
01 Mar - 23:38:50 10° W 23:54:03 74° NNW 00:12:10 10° ENE visible
02 Mar - 01:51:29 10° WNW 02:09:07 66° N 02:25:06 10° E daylight
02 Mar - 04:05:16 10° WNW 04:23:21 87° NNE 04:36:10 10° ESE daylight
02 Mar - 06:19:59 10° WNW 06:34:21 44° SW 06:43:49 10° SSE daylight
02 Mar - 19:40:08 10° SSW 19:48:46 32° SE 20:01:17 10° E visible
02 Mar - 21:46:42 10° WSW 21:58:57 81° SSE 22:16:43 10° ENE visible
02 Mar - 23:57:06 10° W 00:12:33 69° N 00:30:30 10° ENE visible
03 Mar - 02:09:52 10° WNW 02:27:43 69° N 02:43:26 10° E daylight
03 Mar - 04:23:31 10° WNW 04:41:24 81° SSW 04:53:58 10° ESE daylight
03 Mar - 06:38:54 10° W 06:51:41 33° SW 07:00:36 10° SSE daylight
03 Mar - 19:56:54 10° SSW 20:06:07 44° SE 20:20:12 10° ENE visible
03 Mar - 22:04:30 10° WSW 22:17:00 87° NNW 22:34:58 10° ENE visible
04 Mar - 00:15:25 10° W 00:31:08 66° N 00:48:54 10° ENE visible
04 Mar - 02:28:11 10° WNW 02:46:13 74° NNE 03:01:42 10° E daylight
04 Mar - 04:41:48 10° WNW 04:59:18 68° SSW 05:11:33 10° SE daylight
04 Mar - 06:58:24 10° W 07:08:57 23° SW 07:16:51 10° S daylight
04 Mar - 18:11:18 10° SSE 18:15:21 14° SE 18:20:13 10° ESE night (unlit)
04 Mar - 20:14:02 10° SW 20:23:36 57° SE 20:38:46 10° ENE visible
04 Mar - 22:22:28 10° WSW 22:35:14 77° NNW 22:53:16 10° ENE visible
05 Mar - 00:33:45 10° W 00:49:46 66° N 01:07:22 10° E visible
05 Mar - 02:46:25 10° WNW 03:04:35 82° NNE 03:19:52 10° ESE daylight
05 Mar - 05:00:12 10° WNW 05:16:59 55° SW 05:28:54 10° SE daylight
05 Mar - 07:19:04 10° W 07:26:12 15° SW 07:32:05 10° SSW daylight
05 Mar - 18:26:27 10° S 18:32:31 22° SE 18:40:51 10° E night (unlit)
05 Mar - 20:31:27 10° SW 20:41:17 72° SSE 20:57:09 10° ENE visible
05 Mar - 22:40:35 10° W 22:53:36 71° NNW 23:11:37 10° ENE visible
06 Mar - 00:52:03 10° WNW 01:08:22 67° N 01:25:49 10° E visible
06 Mar - 03:04:36 10° WNW 03:22:49 89° SSW 03:37:51 10° ESE daylight
06 Mar - 05:18:49 10° WNW 05:34:31 43° SW 05:45:57 10° SSE daylight
06 Mar - 18:42:46 10° SSW 18:49:44 31° SE 19:00:14 10° E visible
06 Mar - 20:49:05 10° WSW 20:59:09 86° SSE 21:15:27 10° ENE visible
06 Mar - 22:58:46 10° W 23:12:06 66° N 23:30:04 10° ENE visible
07 Mar - 01:10:17 10° WNW 01:26:54 71° NNE 01:44:16 10° E daylight
07 Mar - 03:22:48 10° WNW 03:40:51 77° SSW 03:55:37 10° SE daylight
07 Mar - 05:37:48 10° W 05:51:56 33° SW 06:02:38 10° SSE daylight
07 Mar - 18:59:37 10° SSW 19:07:03 44° SE 19:19:01 10° ENE visible
07 Mar - 21:06:54 10° WSW 21:17:13 82° NNW 21:33:45 10° ENE visible
07 Mar - 23:17:00 10° W 23:30:39 64° N 23:48:37 10° E visible
08 Mar - 01:28:27 10° WNW 01:45:21 77° NNE 02:02:35 10° ESE daylight
08 Mar - 03:41:02 10° WNW 03:58:44 65° SW 04:13:10 10° SE daylight
08 Mar - 05:57:25 10° W 06:09:18 24° SW 06:18:45 10° S daylight
08 Mar - 17:14:33 10° SSE 17:16:54 12° SE 17:19:33 10° ESE night (unlit)
08 Mar - 19:16:49 10° SW 19:24:31 59° SE 19:37:31 10° ENE visible
08 Mar - 21:24:53 10° W 21:35:26 73° NNW 21:52:06 10° ENE visible
08 Mar - 23:35:11 10° WNW 23:49:12 65° N 00:07:11 10° E visible
09 Mar - 01:46:34 10° WNW 02:03:41 85° NNE 02:20:47 10° ESE daylight
09 Mar - 03:59:25 10° WNW 04:16:28 53° SW 04:30:26 10° SE daylight
09 Mar - 06:18:14 10° W 06:26:41 16° SW 06:33:54 10° SSW daylight
09 Mar - 17:29:23 10° S 17:34:03 20° SE 17:40:22 10° E night (unlit)
09 Mar - 19:34:17 10° SW 19:42:13 76° SSE 19:55:51 10° ENE visible
09 Mar - 21:42:57 10° W 21:53:46 66° N 22:10:33 10° ENE visible
